Temp
25 25 25 25 25 25 25 25 25 26 26 26 26 26 27 27 28 28 28 29 28 28 29 28 27 29 29 29 31 32 33 33 27 23 25 24 24 24 26 29 30 30 30
23 24 25 25 24 23 23 24 25 25 26 25 25 25 25 26 26 26 25 26 26 25 26 26 26 27 26 27 28 28 29 30 28 23 23 23 23 25 28 27 29 30 28
23 24 24 24 24 23 23 24 25 25 25 26 26 25 25 25 25 25 26 25 25 24 24 24 24 25 24 25 25 26 26 27 26 25 21 26 26 26 25 25 25 24 27
22 23 23 24 24 24 25 25 25 25 25 25 25 25 25 25 25 25 25 24 24 25 25 25 25 24 23 24 24 24 26 25 25 24 23 23 23 23 20 20 19 22 22
22 23 23 24 24 24 24 25 25 25 26 26 26 27 26 25 25 24 23 23 22 22 23 25 27 28 29 28 24 25 26 25 24 23 21 20 20 21 19 19 18 19 20
21 21 23 24 24 24 24 24 24 24 24 25 26 26 27 28 30 29 25 23 23 22 21 21 22 25 29 30 30 31 29 25 24 22 21 21 19 19 19 18 17 14 13
22 22 22 23 23 23 24 24 22 22 23 23 24 26 26 27 30 29 27 24 23 23 23 24 24 25 25 26 28 28 28 29 27 23 20 19 18 19 19 17 17 15 14
22 22 22 23 22 23 23 23 22 22 22 21 21 23 25 28 30 29 27 24 23 23 24 24 24 25 26 25 24 23 23 23 23 23 21 20 20 21 19 19 16 13 13
21 22 22 22 22 22 22 21 22 22 22 22 23 23 24 27 31 30 27 25 23 22 23 24 24 25 28 27 23 21 21 21 26 26 26 25 25 25 23 14 3 1 1
20 21 21 22 21 20 21 21 22 22 23 24 24 23 23 25 31 30 27 25 22 21 22 23 27 26 28 27 22 20 16 18 18 15 16 18 18 17 21 15 8 -2 -3
20 21 20 21 19 20 19 20 20 20 20 18 19 19 20 23 27 30 29 25 22 20 20 18 19 27 27 27 25 19 18 19 14 9 9 10 10 11 11 12 11 7 -3
18 17 15 13 20 18 13 15 14 14 13 13 12 15 17 20 26 29 29 27 26 20 19 18 19 26 27 27 22 25 26 16 6 4 2 5 6 7 8 9 10 10 11
12 9 9 13 17 17 13 14 13 11 12 12 15 12 13 17 18 27 27 28 27 20 19 21 26 26 25 21 23 24 14 7 4 0 2 4 6 7 5 3 5 6 7
8 10 10 11 12 12 17 16 13 11 10 14 14 14 12 14 16 16 18 17 25 22 23 16 20 23 24 21 11 16 10 9 6 5 4 5 4 2 3 6 2 4 1
11 12 12 12 12 13 15 15 17 17 17 12 13 12 9 11 16 22 20 15 14 19 7 4 4 5 7 8 8 9 8 7 5 5 3 4 5 4 6 4 3 1 -1
13 13 13 13 11 12 11 12 24 27 28 30 30 22 18 24 28 29 29 29 29 29 4 3 8 10 11 12 9 10 8 8 8 6 4 4 6 6 6 5 1 -1 2
14 13 12 13 12 11 10 11 13 16 29 30 31 31 31 29 28 30 30 30 30 29 21 14 14 16 15 15 13 10 12 9 8 7 8 7 7 6 4 4 4 3 2
11 10 13 13 13 11 12 13 12 7 11 12 22 29 30 31 31 31 30 30 23 25 23 21 19 18 17 16 15 12 12 11 7 8 7 8 7 5 4 3 4 3 2
11 12 13 11 11 12 12 11 9 8 12 15 6 17 22 30 32 32 32 26 23 22 22 20 21 20 19 18 17 14 12 11 11 8 6 7 6 5 4 4 5 4 3
11 12 11 13 12 11 12 12 13 13 14 14 15 16 6 4 11 18 20 23 23 22 23 21 20 20 19 19 18 14 12 10 10 10 8 8 8 7 6 5 5 4 2
14 12 12 12 12 13 15 14 15 15 14 15 17 19 20 12 17 16 16 16 17 18 19 19 18 18 19 19 17 14 12 11 11 9 8 7 7 6 6 6 6 6 4
14 13 11 13 14 13 14 14 14 14 14 14 16 16 25 21 18 15 16 17 17 17 19 20 19 18 18 18 17 15 13 11 11 10 9 8 8 8 8 7 6 5 3
15 15 12 12 12 8 7 12 13 14 14 14 15 15 15 15 18 19 19 20 20 20 20 19 19 18 19 18 18 17 15 14 11 11 9 8 7 7 8 7 5 3 1
16 16 15 13 10 11 11 12 12 12 14 15 15 15 16 17 17 17 18 19 19 19 20 19 19 18 18 18 17 16 16 16 15 13 10 9 8 8 8 6 4 2 -0
11 11 11 12 11 12 12 13 14 15 15 15 15 15 16 17 17 17 17 18 18 18 18 18 18 17 15 15 15 15 15 15 14 12 10 9 8 7 6 5 3 0 -1
9 8 8 8 11 11 12 14 14 14 15 16 17 17 17 17 17 17 18 18 17 16 16 16 16 15 15 15 15 15 15 15 14 13 12 9 7 6 5 2 1 0 -0
MSLP
1016.33 1016.05 1015.83 1015.64 1015.39 1014.95 1014.44 1014.39 1014.38 1014.19 1013.87 1013.73 1013.63 1013.67 1013.71 1014.03 1013.83 1013.48 1013.65 1014.15 1014.13 1014.79 1014.85 1014.73 1015.33 1015.29 1015.51 1015.74 1015.65 1015.88 1016.16 1016.61 1018.59 1021.15 1021.73 1022.85 1023.50 1023.55 1024.41 1023.79 1024.33 1024.05 1023.76
1016.68 1016.33 1016.14 1015.97 1015.73 1015.21 1014.97 1014.92 1014.84 1014.61 1014.58 1014.45 1014.45 1014.18 1014.51 1014.67 1014.32 1014.24 1014.41 1015.06 1014.93 1015.19 1015.46 1015.63 1016.25 1016.72 1016.65 1016.60 1016.71 1017.11 1016.73 1017.19 1018.30 1020.20 1021.97 1022.56 1023.20 1023.33 1024.01 1024.25 1024.42 1024.36 1023.85
1017.03 1016.72 1016.47 1016.29 1015.98 1015.76 1015.68 1015.57 1015.19 1015.04 1015.24 1015.07 1014.85 1015.31 1015.46 1015.32 1014.93 1015.28 1015.35 1015.45 1015.69 1016.09 1016.15 1016.80 1017.45 1017.61 1017.42 1017.80 1017.77 1017.43 1018.43 1018.03 1018.71 1019.11 1021.43 1022.49 1022.98 1022.91 1023.96 1024.00 1024.43 1024.24 1024.05
1017.52 1017.20 1016.94 1016.65 1016.43 1016.30 1016.17 1015.90 1015.77 1015.80 1015.61 1015.95 1016.16 1015.99 1016.06 1016.07 1016.19 1016.27 1016.39 1016.73 1017.19 1017.63 1017.65 1017.46 1017.76 1018.35 1018.84 1018.70 1017.60 1018.36 1018.58 1018.86 1019.55 1019.55 1021.45 1022.39 1023.03 1023.55 1023.88 1024.45 1024.43 1024.24 1023.93
1017.95 1017.69 1017.53 1017.27 1017.05 1016.80 1016.59 1016.62 1016.57 1016.58 1016.79 1016.87 1016.74 1016.87 1017.00 1017.03 1017.33 1017.45 1017.50 1017.66 1018.14 1018.29 1018.34 1018.55 1019.24 1019.25 1019.33 1019.27 1018.71 1019.20 1019.45 1019.83 1020.71 1021.01 1021.71 1022.83 1023.19 1023.95 1024.54 1024.93 1024.73 1024.47 1024.08
1018.37 1018.16 1017.97 1017.73 1017.59 1017.56 1017.58 1017.73 1017.84 1017.87 1017.91 1017.79 1017.74 1017.73 1017.81 1017.96 1018.20 1018.10 1018.11 1018.48 1018.94 1019.29 1019.53 1020.01 1020.19 1020.17 1020.11 1019.96 1020.13 1020.19 1020.32 1020.91 1021.30 1021.90 1022.55 1023.26 1024.04 1024.45 1024.91 1024.79 1024.98 1024.94 1024.15
1018.91 1018.81 1018.66 1018.60 1018.57 1018.54 1018.58 1018.62 1018.74 1018.81 1018.81 1018.81 1018.74 1018.55 1018.51 1018.69 1018.83 1019.03 1019.13 1019.44 1019.53 1019.82 1019.91 1020.47 1021.02 1021.44 1021.60 1020.99 1020.67 1021.12 1021.44 1021.45 1022.00 1022.62 1023.06 1023.50 1023.72 1024.44 1025.08 1025.19 1024.91 1024.61 1024.22
1019.45 1019.40 1019.33 1019.21 1019.14 1019.16 1019.13 1019.18 1019.22 1019.28 1019.36 1019.41 1019.35 1019.09 1018.93 1019.11 1019.26 1019.33 1019.46 1019.76 1020.17 1020.71 1020.85 1021.36 1021.54 1021.75 1021.78 1021.07 1021.31 1021.76 1022.39 1023.19 1023.52 1023.29 1023.66 1024.11 1024.17 1024.48 1024.51 1024.19 1024.21 1024.41 1024.32
1019.90 1019.83 1019.73 1019.58 1019.43 1019.46 1019.57 1019.71 1019.82 1019.86 1019.95 1019.99 1020.09 1019.95 1019.75 1019.62 1019.70 1019.93 1020.21 1020.68 1021.30 1021.69 1022.04 1022.14 1022.03 1021.99 1021.78 1021.72 1022.01 1022.66 1023.33 1023.73 1023.53 1023.55 1023.69 1023.64 1023.45 1023.68 1023.66 1024.08 1024.65 1025.05 1024.86
1020.47 1020.51 1020.51 1020.43 1020.35 1020.41 1020.47 1020.47 1020.46 1020.41 1020.50 1020.59 1020.63 1020.60 1020.50 1020.33 1020.45 1020.63 1020.86 1021.13 1021.49 1022.05 1022.35 1022.40 1022.11 1022.05 1022.06 1022.24 1022.62 1023.07 1023.41 1023.57 1023.57 1023.73 1023.91 1023.90 1023.93 1023.89 1023.58 1023.81 1024.15 1024.99 1025.37
1020.69 1020.85 1021.01 1021.09 1021.14 1021.16 1021.17 1021.18 1021.25 1021.35 1021.47 1021.60 1021.61 1021.53 1021.33 1021.24 1021.17 1021.21 1021.38 1021.53 1021.82 1022.19 1022.40 1022.54 1022.36 1022.25 1022.28 1022.29 1022.47 1022.89 1023.05 1023.01 1023.41 1023.66 1023.72 1023.63 1023.58 1023.51 1023.51 1023.38 1023.63 1024.03 1024.52
1020.59 1020.91 1021.20 1021.26 1021.30 1021.50 1021.58 1021.68 1021.75 1021.91 1022.03 1022.06 1022.08 1022.06 1021.81 1021.63 1021.52 1021.48 1021.50 1021.53 1021.73 1022.07 1022.27 1022.30 1022.24 1022.27 1022.32 1022.33 1022.47 1022.39 1022.42 1022.78 1023.19 1023.45 1023.71 1023.69 1023.60 1023.36 1023.37 1023.30 1023.17 1023.22 1023.14
1021.02 1021.17 1021.35 1021.09 1021.15 1021.25 1021.52 1021.71 1021.84 1021.90 1021.87 1021.97 1022.03 1022.01 1021.90 1021.62 1021.54 1021.42 1021.37 1021.35 1021.43 1021.64 1021.69 1021.76 1021.81 1021.84 1021.81 1021.83 1021.93 1022.03 1022.22 1022.48 1022.87 1023.27 1023.09 1023.03 1022.89 1022.77 1022.81 1023.06 1022.72 1022.67 1022.62
1021.02 1021.24 1021.46 1021.59 1021.57 1021.43 1021.37 1021.52 1021.80 1021.75 1021.73 1021.73 1021.80 1021.80 1021.63 1021.59 1021.35 1021.14 1021.06 1020.94 1020.93 1021.02 1021.15 1021.25 1021.41 1021.50 1021.49 1021.48 1021.56 1021.63 1021.74 1022.03 1022.49 1022.67 1022.63 1022.26 1022.38 1022.43 1022.39 1022.31 1022.08 1021.99 1022.11
1020.54 1020.83 1021.05 1021.10 1021.10 1021.05 1021.01 1020.93 1020.87 1020.54 1020.45 1020.59 1020.79 1021.07 1021.10 1020.98 1020.54 1020.47 1020.51 1020.57 1020.62 1020.77 1021.04 1021.28 1021.49 1021.57 1021.39 1021.43 1021.44 1021.37 1021.34 1021.50 1021.78 1021.50 1021.68 1021.66 1021.51 1021.59 1021.27 1021.07 1021.05 1021.22 1021.39
1020.21 1020.39 1020.39 1020.63 1020.81 1020.91 1020.91 1020.77 1020.22 1019.99 1019.99 1019.76 1019.65 1019.66 1019.52 1019.44 1019.65 1019.71 1019.82 1019.98 1020.13 1020.28 1021.17 1021.07 1020.95 1020.81 1020.65 1020.36 1020.31 1020.29 1020.33 1020.29 1020.11 1020.18 1020.35 1020.35 1020.30 1020.44 1020.36 1020.20 1020.39 1020.81 1020.52
1019.21 1019.37 1019.74 1020.03 1020.16 1020.31 1020.39 1020.45 1020.23 1019.39 1019.08 1019.01 1018.96 1018.82 1018.72 1018.83 1019.03 1018.96 1018.95 1019.02 1019.13 1019.29 1019.24 1019.37 1019.35 1019.30 1019.09 1018.94 1018.81 1018.81 1018.65 1018.35 1018.37 1018.78 1018.97 1018.93 1019.13 1019.30 1019.50 1019.51 1019.53 1019.53 1019.18
1018.35 1018.51 1018.85 1019.11 1019.45 1019.65 1019.73 1019.71 1019.67 1019.83 1019.57 1018.83 1018.37 1018.18 1018.10 1018.12 1018.16 1018.15 1018.21 1018.37 1018.23 1018.15 1018.07 1018.00 1017.85 1017.76 1017.62 1017.49 1017.47 1017.44 1017.33 1017.31 1017.57 1017.66 1017.75 1017.72 1017.94 1018.07 1018.18 1018.14 1018.10 1018.05 1017.85
1017.63 1017.85 1017.98 1018.11 1018.34 1018.55 1018.80 1018.96 1018.99 1018.93 1018.85 1018.53 1018.37 1017.75 1017.41 1017.23 1017.13 1017.01 1017.12 1017.02 1016.86 1016.72 1016.69 1016.73 1016.45 1016.21 1016.03 1015.99 1015.91 1015.99 1016.07 1016.15 1016.19 1016.35 1016.40 1016.54 1016.63 1016.86 1016.76 1016.67 1016.54 1016.53 1016.53
1016.51 1016.72 1017.05 1017.33 1017.65 1017.92 1018.05 1018.16 1018.16 1018.20 1018.10 1017.78 1017.42 1016.89 1016.99 1017.26 1016.92 1016.21 1016.13 1015.90 1015.80 1015.56 1015.37 1015.14 1014.89 1014.85 1014.73 1014.64 1014.54 1014.60 1014.78 1015.03 1015.10 1015.19 1015.22 1015.26 1015.33 1015.45 1015.34 1015.23 1015.21 1015.22 1015.18
1015.67 1015.95 1016.25 1016.75 1016.81 1016.81 1016.89 1016.98 1017.04 1017.05 1016.83 1016.56 1016.00 1015.81 1016.14 1016.49 1015.81 1015.52 1015.35 1015.15 1014.89 1014.59 1014.15 1013.95 1013.75 1013.47 1013.42 1013.33 1013.27 1013.37 1013.48 1013.54 1013.67 1013.83 1013.96 1013.96 1014.07 1014.12 1013.97 1013.95 1013.87 1013.84 1013.77
1014.90 1015.12 1015.42 1015.52 1015.70 1015.91 1015.92 1016.05 1016.07 1015.97 1015.81 1015.62 1015.19 1015.12 1014.98 1014.92 1014.69 1014.45 1014.09 1013.72 1013.46 1013.31 1013.12 1012.89 1012.49 1012.30 1012.15 1012.08 1012.16 1012.20 1012.18 1012.18 1012.27 1012.44 1012.49 1012.55 1012.63 1012.65 1012.67 1012.67 1012.59 1012.56 1012.63
1014.02 1014.33 1014.58 1014.83 1015.07 1015.19 1015.27 1015.27 1015.19 1015.05 1014.84 1014.69 1014.47 1014.20 1014.09 1013.79 1013.55 1013.13 1012.58 1012.19 1012.08 1011.83 1011.65 1011.57 1011.40 1011.25 1011.13 1010.90 1010.89 1010.83 1010.75 1010.71 1010.88 1011.11 1011.22 1011.34 1011.43 1011.34 1011.30 1011.35 1011.35 1011.42 1011.52
1013.33 1013.75 1014.03 1014.23 1014.38 1014.51 1014.46 1014.30 1014.20 1014.08 1013.90 1013.62 1013.37 1013.10 1012.79 1012.43 1012.08 1011.83 1011.59 1011.23 1010.83 1010.59 1010.49 1010.36 1010.13 1010.04 1009.95 1009.89 1009.87 1009.76 1009.69 1009.57 1009.65 1009.77 1009.97 1010.04 1010.03 1010.03 1010.03 1010.11 1010.32 1010.37 1010.36
1012.93 1013.26 1013.46 1013.56 1013.65 1013.70 1013.69 1013.53 1013.32 1013.05 1012.73 1012.47 1012.24 1011.99 1011.71 1011.34 1011.13 1010.86 1010.61 1010.51 1010.34 1010.19 1009.82 1009.55 1009.27 1009.02 1008.86 1008.84 1008.78 1008.69 1008.56 1008.49 1008.51 1008.58 1008.77 1008.88 1008.87 1008.91 1008.99 1009.14 1009.15 1009.13 1009.04
1012.69 1013.04 1013.23 1013.31 1013.34 1013.27 1013.17 1013.11 1012.93 1012.71 1012.43 1012.09 1011.67 1011.26 1010.89 1010.66 1010.23 1009.86 1009.63 1009.45 1009.34 1009.08 1008.91 1008.78 1008.50 1008.17 1007.87 1007.65 1007.44 1007.34 1007.28 1007.24 1007.29 1007.43 1007.59 1007.65 1007.65 1007.53 1007.69 1007.67 1007.59 1007.51 1007.21
Wind_Speed
6 4 4 4 3 3 5 5 5 5 6 7 7 7 7 6 7 9 10 9 11 10 9 10 10 8 6 5 5 4 3 3 6 3 3 5 3 4 2 2 2 2 1
5 4 5 4 3 6 6 6 5 7 7 7 8 9 9 8 10 11 12 9 11 12 10 12 10 7 9 8 6 6 5 4 4 9 5 3 2 6 2 1 2 3 1
5 5 4 5 6 7 6 6 8 9 9 9 10 9 9 9 12 12 12 13 13 13 13 11 10 8 9 6 7 9 4 6 4 7 6 3 2 3 2 0 3 3 4
4 6 7 7 7 7 7 9 9 9 11 10 9 10 10 11 11 12 12 13 13 12 12 13 12 10 8 7 9 8 7 8 8 9 7 4 3 2 3 2 3 1 5
5 7 8 8 8 9 10 10 10 10 9 9 11 12 11 11 8 11 12 13 12 13 13 13 12 14 19 13 7 8 7 7 6 6 4 3 3 2 2 1 2 5 4
8 9 9 9 10 10 10 11 11 11 10 10 11 12 12 9 20 20 14 11 11 11 11 10 9 10 17 21 21 20 12 6 6 3 2 3 3 2 1 1 2 2 4
8 8 9 8 9 9 9 10 10 9 9 10 10 10 12 11 19 19 18 9 10 9 9 9 9 6 6 8 16 17 15 18 12 3 4 3 3 2 2 3 2 1 3
6 6 6 6 8 8 9 9 9 8 8 7 8 8 9 10 18 18 18 10 10 9 9 7 7 7 6 8 9 9 9 6 5 5 5 3 3 4 4 3 0 1 4
6 5 4 4 7 7 8 7 6 7 6 7 6 7 8 8 14 13 10 8 9 9 7 5 5 5 11 11 7 7 5 4 4 4 3 4 6 6 5 2 2 3 3
4 5 4 4 5 6 5 5 4 5 6 5 7 5 6 6 11 10 7 4 7 5 4 4 8 6 8 8 5 3 3 2 1 1 1 2 2 3 4 2 4 3 1
4 5 5 5 5 5 5 4 4 5 5 5 5 5 5 5 5 8 8 4 4 3 3 2 1 3 5 4 5 3 4 3 1 1 2 2 2 2 1 1 3 4 3
5 5 4 3 3 3 5 3 3 4 4 3 3 2 1 2 3 5 7 7 7 4 3 3 2 3 2 1 3 2 2 6 2 1 0 2 3 2 3 4 5 5 6
4 3 3 4 4 5 5 5 3 3 3 3 3 3 3 2 2 4 4 5 6 4 3 6 6 3 4 3 6 5 3 2 2 0 2 2 2 3 2 2 4 5 7
6 5 4 3 3 2 1 2 2 2 2 3 3 4 3 3 4 3 3 3 7 4 5 3 5 7 8 7 3 4 2 3 4 4 4 3 1 2 3 4 3 2 3
5 5 5 4 5 4 4 4 5 5 6 5 5 4 4 5 6 10 9 4 4 7 1 1 1 2 3 3 3 5 4 4 5 4 4 5 5 3 5 3 3 2 4
7 6 6 5 4 3 3 4 13 15 15 17 16 10 5 12 11 14 16 16 15 14 2 3 4 5 8 7 6 6 5 7 7 5 4 4 5 5 6 3 3 4 8
9 7 5 5 5 5 4 5 6 5 17 20 19 19 20 14 16 17 17 16 17 14 8 6 7 8 9 8 7 7 8 6 5 6 7 7 7 7 6 7 7 7 9
8 7 7 6 6 5 6 7 5 3 5 4 11 17 18 20 20 20 19 16 9 12 10 10 10 9 9 9 8 9 8 7 6 8 8 8 8 8 7 8 8 9 9
9 8 8 6 6 7 5 5 4 5 7 7 3 8 11 21 21 23 23 12 11 11 10 11 11 11 10 10 10 9 9 9 8 8 7 8 8 7 9 9 9 12 11
10 11 8 7 7 7 6 7 6 7 7 7 8 9 2 1 5 10 9 10 11 11 11 11 10 10 11 10 10 9 8 8 9 8 9 8 8 8 9 10 9 9 9
8 7 10 6 7 8 8 9 8 8 8 9 11 8 12 8 10 9 9 9 11 11 12 11 10 10 10 10 9 8 9 9 9 9 8 8 8 9 9 9 9 9 9
7 7 7 10 8 8 9 7 7 8 9 10 10 8 19 9 9 10 10 11 11 11 10 11 10 10 9 9 9 9 9 10 9 9 9 8 8 9 9 9 9 9 9
8 9 7 7 7 5 4 7 8 8 9 9 9 9 7 9 10 11 12 11 10 10 9 9 10 10 9 9 9 10 10 9 8 8 9 8 8 9 9 9 9 9 9
7 8 7 6 5 7 8 8 7 9 10 10 10 9 10 10 10 11 11 10 10 10 9 9 9 12 10 9 8 8 9 9 8 7 10 9 10 10 9 9 9 11 10
4 5 5 5 4 6 6 7 8 9 9 9 9 9 9 9 9 9 9 9 9 9 10 9 8 11 12 13 13 14 12 14 12 11 8 10 12 13 10 9 11 10 13
4 3 3 3 4 4 4 6 6 6 7 8 8 8 8 9 9 9 8 9 8 8 9 8 10 13 14 12 13 13 14 15 13 14 10 10 10 11 9 12 15 11 14
Wind_Direction
344 354 10 10 358 19 55 54 56 54 47 50 47 52 57 65 78 82 82 87 90 89 77 72 58 57 65 44 52 42 85 79 109 125 86 123 132 124 239 143 255 236 214
344 10 30 30 29 51 53 52 67 74 67 66 71 66 61 65 72 77 80 74 78 79 74 75 64 56 64 56 49 56 67 52 115 124 129 121 105 159 150 290 284 268 255
8 25 39 48 57 59 60 64 66 68 67 67 66 77 80 75 76 75 80 79 72 67 66 68 70 65 54 63 69 63 43 73 85 126 120 146 125 104 161 26 265 283 302
17 42 48 50 60 69 69 66 69 70 69 69 72 71 69 72 75 77 78 81 80 77 76 68 61 64 68 58 65 65 69 75 79 90 84 83 69 98 89 22 322 302 311
35 51 49 51 53 60 61 62 63 64 68 74 79 78 77 74 72 82 83 80 80 75 67 69 68 75 73 69 64 48 61 79 78 89 83 110 74 63 45 348 294 308 275
49 47 42 49 53 57 62 63 64 64 66 69 71 77 81 83 90 89 85 84 81 78 82 71 60 59 72 72 70 68 65 72 72 68 66 77 115 124 157 12 320 324 324
60 56 54 56 60 61 65 68 65 67 72 68 69 78 81 85 89 88 85 81 81 77 79 81 79 70 72 84 77 74 65 68 69 76 108 84 81 130 206 226 235 224 263
71 68 63 73 75 68 69 68 64 61 62 66 56 52 80 84 87 86 82 75 73 69 70 76 80 86 78 77 82 78 75 82 80 75 84 137 176 224 213 213 182 308 287
82 82 71 82 91 83 73 66 63 74 67 66 61 62 67 73 85 91 91 88 93 86 83 82 85 76 80 83 85 98 111 109 75 78 86 28 358 332 321 81 353 68 305
75 73 51 55 65 70 67 63 45 50 61 64 72 50 55 71 94 97 97 101 105 107 108 77 89 90 74 84 88 96 103 162 202 58 337 331 321 293 325 141 157 156 170
111 96 75 66 66 65 64 56 65 60 67 52 58 41 43 44 83 102 113 113 122 128 126 133 50 72 64 61 104 161 200 167 84 109 311 306 309 297 269 272 194 162 169
134 115 96 68 86 85 87 58 70 88 87 67 78 38 7 18 77 115 123 130 137 143 168 181 188 234 255 228 146 258 298 116 125 41 0 266 238 219 228 223 218 212 222
112 135 146 139 144 154 147 156 150 151 153 188 188 200 234 239 271 200 180 173 171 179 181 199 208 262 289 305 286 256 142 147 165 350 278 256 221 229 236 272 243 229 246
157 175 178 165 181 210 182 176 154 178 191 208 213 216 222 223 226 226 225 229 221 203 216 224 225 245 240 240 240 270 189 195 198 213 222 229 222 225 247 203 227 226 238
181 185 198 194 196 203 213 197 207 215 194 193 213 194 190 230 223 213 210 218 221 229 168 26 328 277 262 251 245 232 225 214 217 211 214 227 237 216 252 197 221 233 232
187 194 200 195 202 209 213 262 246 239 236 240 239 216 228 235 239 233 232 231 231 237 81 207 233 230 237 238 232 242 217 221 223 212 219 216 240 245 256 255 200 222 258
196 196 196 202 202 202 210 218 248 273 252 249 250 250 247 240 246 247 244 245 246 252 246 231 242 245 254 248 240 229 250 222 200 208 221 225 227 233 229 244 249 246 252
206 200 194 203 205 203 212 222 225 225 255 264 256 247 252 255 254 251 248 255 255 248 246 245 250 247 246 242 239 236 241 238 213 225 226 227 229 227 228 235 237 242 250
200 209 206 200 198 209 211 221 213 221 241 257 282 265 254 257 257 254 252 244 246 245 239 243 249 250 248 247 244 239 232 233 228 223 224 225 225 220 234 241 244 244 248
210 213 200 206 211 216 218 222 229 235 245 247 248 250 243 90 246 247 240 243 244 248 250 245 245 246 248 248 247 238 235 230 235 234 235 231 230 227 238 241 242 247 243
212 212 209 211 215 214 221 224 229 230 236 243 249 248 230 223 250 245 245 238 240 246 249 250 251 247 249 253 252 240 236 239 232 231 232 228 226 234 234 239 245 244 249
210 215 202 218 220 220 226 229 227 233 240 249 259 255 254 251 242 244 245 242 239 239 242 248 251 250 247 246 248 245 242 241 237 232 233 228 230 239 245 247 246 243 248
213 217 215 219 223 221 219 228 234 237 245 248 251 254 242 239 247 249 251 253 249 248 245 245 252 257 255 250 244 244 250 247 229 226 233 229 235 241 240 244 243 245 247
215 219 221 218 199 218 230 238 237 239 245 250 251 251 251 249 248 249 253 256 254 253 254 255 254 255 258 254 249 247 246 250 249 235 225 238 245 249 247 243 246 249 253
184 202 208 216 210 220 231 236 243 246 247 249 253 254 256 254 256 257 256 258 261 262 261 258 256 258 255 255 254 255 250 244 242 233 229 236 244 245 245 245 246 248 248
182 198 215 216 236 238 241 256 262 262 263 264 266 266 267 268 267 265 264 263 263 261 264 264 263 256 255 256 256 255 253 255 251 246 238 240 243 242 237 239 244 245 252